Regional Weather Roundup
Issued by NWS

Home | Current Version | Previous Version | Graphics & Text | Print | Product List | Glossary On
Versions: 1 2 3 4 5 6 7 8 9 10 11 12 13 14 15 16 17 18 19 20 21 22 23 24 25 26 27 28 29 30 31 32 33 34 35 36 37 38 39 40 41 42 43 44 45 46 47 48 49 50
000
ASUS43 KMKX 211721
RWRWI

WISCONSIN REGIONAL WEATHER ROUNDUP
NATIONAL WEATHER SERVICE MILWAUKEE/SULLIVAN WI
1100 AM CST SUN DEC 21 2014

NOTE: "FAIR" INDICATES FEW OR NO CLOUDS BELOW 12,000 FEET WITH NO
SIGNIFICANT WEATHER AND/OR OBSTRUCTIONS TO VISIBILITY.

WIZ001-002-006>008-014>016-023>028-211800-
NORTHWEST WISCONSIN

CITY           SKY/WX    TMP DP  RH WIND       PRES   REMARKS
SUPERIOR ARPT  CLOUDY    33  31  94 S5        29.89F FOG     WCI  28
ASHLAND        CLOUDY    34  29  82 S5        29.92F WCI  30
HAYWARD        LGT SNOW  32  29  88 S8        29.90F VSB 3/4 WCI  25
SIREN          LGT SNOW  32  32  98 SE6       29.88F WCI  27
CUMBERLAND     LGT SNOW  32  30  93 SE13      29.88F WCI  22
RICE LAKE      LGT SNOW  32  31  96 SE10      29.92F WCI  24
CHETEK         LGT SNOW  32  31  98 SE13      29.92F WCI  22
LADYSMITH      CLOUDY    32  31  96 SE10G17   29.95F FOG     WCI  24
EAU CLAIRE     LGT SNOW  33  31  92 SE13      29.93F FOG     WCI  24
MENOMONIE      LGT SNOW  33  32  97 SE12      29.92F VSB 1   WCI  24
NEW RICHMOND   LGT SNOW  33  33 100 SE10      29.87F WCI  25
OSCEOLA        LGT SNOW  33  33 100 SE10      29.90F WCI  25
$$

WIZ003>005-009-010-017-018-211800-
NORTH CENTRAL WISCONSIN

CITY           SKY/WX    TMP DP  RH WIND       PRES   REMARKS
MANITOWISH WTR CLOUDY    30  29  99 S9G17     29.94F FOG     WCI  21
ARBOR VITAE    CLOUDY    32  30  92 S8        29.96F FOG     WCI  25
WOODRUFF       CLOUDY    32  30  92 S8        29.96F FOG     WCI  25
RHINELANDER    CLOUDY    29  27  92 S10       29.98F FOG     WCI  20
EAGLE RIVER    CLOUDY    30  29  96 S9        29.97F FOG     WCI  21
LAND O LAKES   CLOUDY    30  28  93 S10       29.97F FOG     WCI  21
PHILLIPS       CLOUDY    30  29  95 S10       29.94F FOG     WCI  21
TOMAHAWK       CLOUDY    29  28  95 CALM      29.98F FOG
MEDFORD        FOG       30  29  98 SE12      29.95F VSB 3/4 WCI  20
MERRILL        CLOUDY    30  30  99 S7        30.00F FOG     WCI  23
$$

WIZ029-030-035-036-043>047-211800-
CENTRAL WISCONSIN

CITY           SKY/WX    TMP DP  RH WIND       PRES   REMARKS
WAUSAU         LGT SNOW  31  29  92 SE12      29.99F FOG     WCI  22
MOSINEE        LGT SNOW  30  30 100 SE8       30.02F FOG     WCI  23
MARSHFIELD     FOG       32  30  92 S14       29.99F VSB 1/2 WCI  22
STEVENS POINT  CLOUDY    31  29  95 S10       30.03F FOG     WCI  22
WAUPACA        CLOUDY    34  32  90 SE8       30.06F FOG     WCI  28
WAUTOMA        CLOUDY    34  33  96 S8        30.06F FOG     WCI  27
WISC RAPIDS    CLOUDY    33  30  88 S8        30.03F FOG     WCI  26
CAMP DOUGLAS   CLOUDY    32  32 100 SE8       30.01F FOG     WCI  25
$$

WIZ011>013-019>022-031-037>040-048>050-211800-
NORTHEAST WISCONSIN

CITY           SKY/WX    TMP DP  RH WIND       PRES   REMARKS
ANTIGO         FOG       28  28 100 S9        30.02F VSB 1/4 WCI  19
SHAWANO        CLOUDY    34  31  88 S8        30.08F FOG     WCI  27
OCONTO         CLOUDY    32  31  95 S6        30.10F WCI  26
STURGEON BAY   PTSUNNY   36  30  80 S14       30.11F WCI  27
GREEN BAY      CLOUDY    33  30  88 S9        30.10F FOG     WCI  25
MANITOWOC      CLOUDY    36  33  89 S13       30.12F WCI  27
APPLETON       CLOUDY    32  32 100 S12       30.08F FOG     WCI  23
CLINTONVILLE   CLOUDY    32  32 100 S9        30.07F FOG     WCI  24
OSHKOSH        CLOUDY    34  31  88 S8        30.08F FOG     WCI  27
$$

WIZ032>034-041-042-053>061-211800-
SOUTHWEST WISCONSIN

CITY           SKY/WX    TMP DP  RH WIND       PRES   REMARKS
LA CROSSE      CLOUDY    37  34  89 S10       29.96F FOG     WCI  30
SPARTA         CLOUDY    35  33  95 SE9       30.00F FOG     WCI  27
VIROQUA        CLOUDY    34  34 100 S15       29.97F VSB 3/4 WCI  24
BOSCOBEL       CLOUDY    38  34  85 S9        30.03F FOG     WCI  31
PRAIRIE DU CHI CLOUDY    38  33  84 SE9G16    30.01F FOG     WCI  31
PLATTEVILLE    CLOUDY    36  34  93 S14       30.05F WCI  27
$$

WIZ056-057-062-063-064-067-068-211800-
SOUTH CENTRAL WISCONSIN

CITY           SKY/WX    TMP DP  RH WIND       PRES   REMARKS
REEDSBURG      CLOUDY    35  32  91 S8        30.03F FOG     WCI  28
BARABOO/DELLS  CLOUDY    34  32  92 S14       30.03F FOG     WCI  25
LONE ROCK      CLOUDY    40  32  73 S6        30.05F HAZE
MINERAL POINT  CLOUDY    36  34  93 S12G20    30.03F FOG     WCI  27
MADISON        CLOUDY    34  31  88 S13       30.08F FOG     WCI  25
MIDDLETON      CLOUDY    36  34  93 S12G18    30.07F WCI  27
WATERTOWN      CLOUDY    33  32  94 S10       30.10F FOG     WCI  25
MONROE         CLOUDY    32  32 100 S9        30.08F FOG     WCI  24
JANESVILLE     CLOUDY    36  32  87 S10       30.12S FOG     WCI  28
$$

WIZ051-052-058>065-066-070>072-211800-
SOUTHEAST WISCONSIN

CITY           SKY/WX    TMP DP  RH WIND       PRES   REMARKS
MILWAUKEE      CLOUDY    36  28  73 S9        30.14F WCI  29
WAUKESHA       CLOUDY    32  28  86 S6        30.14F FOG     WCI  26
MILWAUKEE/TIMM CLOUDY    36  28  75 S7        30.14F WCI  30
RACINE         CLOUDY    35  29  78 S13       30.16F WCI  26
BURLINGTON     CLOUDY    32  29  88 S6        30.14F WCI  27
KENOSHA        CLOUDY    35  29  78 S13       30.15F WCI  26
FOND DU LAC    CLOUDY    34  30  85 S13       30.09F FOG     WCI  25
SHEBOYGAN      CLOUDY    34  30  85 S12       30.12F WCI  25
WEST BEND      CLOUDY    34  30  86 S8        30.11F WCI  27
JUNEAU         CLOUDY    33  31  92 SE12      30.10F FOG     WCI  24
$$

LSZ147-162-211800-
LAKE SUPERIOR

STATION/POSITION TIME  TEMP    WIND        PRES    WAVE
                       AIR SEA DIR/SP/G            HT/PER
                 (UTC) (F)     (DEG/KT/KT) (MB)    (FT/S)
DEVILS ISLAND    1700   33     140/  6/  8 1014.3F
PORT WING        1600   33      CALM  /  3 1013.9
SAXON HARBOR     1600   35     190/  6/ 11 1014.2
$$

LMZ867-665-643>646-211800-
LAKE MICHIGAN

STATION/POSITION TIME  TEMP    WIND        PRES    WAVE
                       AIR SEA DIR/SP/G            HT/PER
                 (UTC) (F)     (DEG/KT/KT) (MB)    (FT/S)
CHAMBERS ISLAND  1600   34     160/  3/  8 1020.3S
NORTHPORT PIER   1600   36     160/  6/ 12 1020.7
SISTER BAY       1513          180/  8/ 10   N/A
ALGOMA LAKESHORE 1615          230/ 15/ 18   N/A
KEWAUNEE LAKESHO 1700   36     190/ 11/ 13 1019.0F
SHEBOYGAN LAKESH 1700   36 34  190/ 19/ 21 1020.9F
PORT WASHINGTON  1600   35     190/  9/ 13 1021.7
MILWAUKEE LAKESH 1700   36     190/  9/ 12   N/A
KENOSHA   LAKESH 1700   35     180/ 16/ 21 1020.7F
$$

TC  - TEMPERATURE IN CELSIUS
VSB - VISIBILITY IN STATUTE MILES
WCI - WIND CHILL INDEX
HX  - HEAT INDEX



USA.gov is the U.S. government's official web portal to all federal, state and local government web resources and services.